FW4639 Weather Reports


Display with metric or nautical units.
time (UTC)temp
F
wind
direction
speed
MPH
gust
MPH
rain 1hr
in
rain 24hr
in
rain mn
in
humidity
%
barometer
mb
20260901014554 79 148 0.0 0.0 0.00 0.00 0.00 73 1019.0
20260901013054 79 148 0.0 0.0 0.00 0.00 0.00 71 1018.9
20260901011554 80 148 0.0 0.0 0.00 0.00 0.00 69 1018.7
20260901010053 80 148 0.0 0.0 0.00 0.00 0.00 68 1018.4
20260901004604 81 148 0.0 0.0 0.00 0.00 0.00 66 1018.4
20260901003053 82 148 0.0 0.0 0.00 0.00 0.00 64 1018.2
20260901001552 82 148 0.0 0.0 0.00 0.00 0.00 62 1018.1
20260901000107 83 148 0.0 0.0 0.00 0.00 0.00 62 1018.1
20260831234555 84 148 0.0 0.0 0.00 0.00 0.00 62 1018.1
20260831233050 86 148 0.0 0.0 0.00 0.00 0.00 59 1018.1
20260831231553 87 148 0.0 0.0 0.00 0.00 0.00 56 1018.1
20260831230049 87 148 0.0 0.0 0.00 0.00 0.00 53 1018.0
20260831224552 88 148 0.0 0.0 0.00 0.00 0.00 52 1017.9
20260831223056 88 148 0.0 0.0 0.00 0.00 0.00 52 1018.0
20260831221547 89 148 0.0 0.0 0.00 0.00 0.00 53 1018.0
20260831220045 89 148 0.0 0.0 0.00 0.00 0.00 53 1018.0
20260831214545 90 133 0.0 1.0 0.00 0.00 0.00 49 1018.1
20260831213043 90 131 0.0 0.0 0.00 0.00 0.00 49 1018.4
20260831211543 90 99 0.0 2.0 0.00 0.00 0.00 48 1018.5
20260831210041 90 129 0.0 0.0 0.00 0.00 0.00 54 1018.4
20260831204540 90 135 0.0 1.0 0.00 0.00 0.00 56 1018.6
20260831203040 90 136 0.0 1.0 0.00 0.00 0.00 55 1018.6
20260831201537 90 136 0.0 1.0 0.00 0.00 0.00 51 1018.7
20260831200037 90 174 0.0 0.0 0.00 0.00 0.00 51 1018.7
20260831194559 90 144 0.0 1.0 0.00 0.00 0.00 49 1018.9
20260831193033 90 112 0.0 3.0 0.00 0.00 0.00 50 1019.1
20260831191530 90 213 0.0 1.0 0.00 0.00 0.00 49 1019.1
20260831190029 91 154 0.0 0.0 0.00 0.00 0.00 50 1019.5
20260831184525 91 139 0.0 1.0 0.00 0.00 0.00 50 1019.6
20260831183023 91 139 0.0 1.0 0.00 0.00 0.00 50 1019.7
20260831181523 91 198 0.0 0.0 0.00 0.00 0.00 52 1019.8
20260831180020 92 198 0.0 1.0 0.00 0.00 0.00 50 1019.9
20260831174525 91 94 0.0 2.0 0.00 0.00 0.00 56 1020.0
20260831173016 90 126 0.0 4.0 0.00 0.00 0.00 56 1020.0
20260831171515 90 96 0.0 1.0 0.00 0.00 0.00 59 1020.1
20260831170012 92 207 0.0 1.0 0.00 0.00 0.00 62 1020.2
20260831164512 91 103 0.0 1.0 0.00 0.00 0.00 62 1020.2
20260831163007 90 153 0.0 0.0 0.00 0.00 0.00 60 1020.5
20260831161503 88 98 0.0 0.0 0.00 0.00 0.00 66 1020.5
20260831160108 87 90 0.0 2.0 0.00 0.00 0.00 67 1020.7
20260831154635 86 217 0.0 2.0 0.00 0.00 0.00 69 1020.7
20260831153054 86 195 0.0 1.0 0.00 0.00 0.00 71 1021.2
20260831151552 85 214 0.0 5.0 0.00 0.00 0.00 72 1021.2
20260831150048 84 82 0.0 1.0 0.00 0.00 0.00 75 1021.2
20260831144547 84 256 0.0 2.0 0.00 0.00 0.00 76 1021.1
20260831143105 83 215 0.0 0.0 0.00 0.00 0.00 78 1021.1
20260831141553 82 233 0.0 0.0 0.00 0.00 0.00 80 1021.0
20260831140041 81 165 0.0 0.0 0.00 0.00 0.00 87 1020.7
20260831134535 78 164 0.0 0.0 0.00 0.00 0.00 93 1020.5
20260831133032 76 222 0.0 0.0 0.00 0.00 0.00 98 1020.7
20260831131524 74 184 0.0 1.0 0.00 0.00 0.00 98 1020.7
20260831130020 73 131 0.0 0.0 0.00 0.00 0.00 98 1020.8
20260831124520 73 132 0.0 0.0 0.00 0.00 0.00 98 1020.8
20260831123019 72 132 0.0 0.0 0.00 0.00 0.00 98 1020.7
20260831121515 71 132 0.0 0.0 0.00 0.00 0.00 98 1020.6
20260831120015 70 132 0.0 0.0 0.00 0.00 0.00 98 1020.7
20260831114514 69 132 0.0 0.0 0.00 0.00 0.00 98 1020.6
20260831113018 69 132 0.0 0.0 0.00 0.00 0.00 97 1020.6
20260831111512 69 132 0.0 0.0 0.00 0.00 0.00 97 1020.6
20260831110017 69 131 0.0 0.0 0.00 0.00 0.00 97 1020.6
20260831104511 69 131 0.0 0.0 0.00 0.00 0.00 97 1020.7
20260831103009 70 131 0.0 0.0 0.00 0.00 0.00 97 1020.5
20260831101509 70 131 0.0 0.0 0.00 0.00 0.00 97 1020.3
20260831100007 70 131 0.0 0.0 0.00 0.00 0.00 97 1020.2
20260831094507 70 131 0.0 0.0 0.00 0.00 0.00 97 1020.3
20260831093009 70 131 0.0 0.0 0.00 0.00 0.00 97 1020.1
20260831091506 70 131 0.0 0.0 0.00 0.00 0.00 97 1020.1
20260831090006 70 131 0.0 0.0 0.00 0.00 0.00 97 1020.1
20260831084503 70 131 0.0 0.0 0.00 0.00 0.00 97 1020.1
20260831083007 70 131 0.0 0.0 0.00 0.00 0.00 97 1020.0
20260831081502 70 131 0.0 0.0 0.00 0.00 0.00 97 1020.1
20260831080001 70 131 0.0 0.0 0.00 0.00 0.00 97 1020.1
20260831074501 70 131 0.0 0.0 0.00 0.00 0.00 97 1020.1
20260831073104 70 131 0.0 0.0 0.00 0.00 0.00 96 1020.4
20260831071601 71 131 0.0 0.0 0.00 0.00 0.00 97 1020.4
20260831070057 71 131 0.0 0.0 0.00 0.00 0.00 97 1020.6
20260831064558 71 131 0.0 0.0 0.00 0.00 0.00 96 1020.6
20260831063056 71 131 0.0 0.0 0.00 0.00 0.00 96 1020.6
20260831061600 71 131 0.0 0.0 0.00 0.00 0.00 96 1020.7
20260831060105 71 131 0.0 0.0 0.00 0.00 0.00 96 1020.6
20260831054553 71 131 0.0 0.0 0.00 0.00 0.00 96 1020.7
20260831053052 71 131 0.0 0.0 0.00 0.00 0.00 96 1020.8
20260831051603 71 131 0.0 0.0 0.00 0.00 0.00 95 1020.7
20260831050048 72 131 0.0 0.0 0.00 0.00 0.00 95 1020.8
20260831044548 72 131 0.0 0.0 0.00 0.00 0.00 95 1020.7
20260831043045 72 131 0.0 0.0 0.00 0.00 0.00 95 1020.7
20260831041541 72 131 0.0 0.0 0.00 0.00 0.00 95 1020.8
20260831040039 72 131 0.0 0.0 0.00 0.00 0.00 94 1020.8
20260831034539 73 131 0.0 0.0 0.00 0.00 0.00 94 1020.7
20260831033038 73 131 0.0 0.0 0.00 0.00 0.00 93 1020.7
20260831031542 73 131 0.0 0.0 0.00 0.00 0.00 93 1020.8
20260831030037 73 131 0.0 0.0 0.00 0.00 0.00 93 1020.9
20260831024606 74 131 0.0 0.0 0.00 0.00 0.00 92 1021.0
20260831023036 74 131 0.0 0.0 0.00 0.00 0.00 91 1021.0
20260831021536 74 131 0.0 0.0 0.00 0.00 0.00 91 1021.0
20260831020035 75 131 0.0 0.0 0.00 0.00 0.00 90 1021.0